| time (UTC) | temp C | wind direction | speed KPH | gust KPH | rain 1hr cm | rain 24hr cm | rain mn cm | humidity % | barometer mb |
| 20260901062005 | 19 | 11 | 0.0 | 1.6 | 0.00 | 0.48 | 0.00 | 99 | 1013.1 |
| 20260901061004 | 19 | 29 | 1.6 | 1.6 | 0.00 | 0.48 | 0.00 | 99 | 1013.1 |
| 20260901060004 | 20 | 13 | 0.0 | 0.0 | 0.00 | 0.48 | 0.00 | 99 | 1013.0 |
| 20260901055003 | 20 | 305 | 0.0 | 1.6 | 0.00 | 0.48 | 0.00 | 99 | 1013.0 |
| 20260901054004 | 20 | 3 | 0.0 | 0.0 | 0.00 | 0.48 | 0.00 | 99 | 1012.9 |
| 20260901053004 | 20 | 322 | 0.0 | 0.0 | 0.00 | 0.48 | 0.00 | 99 | 1013.0 |
| 20260901052004 | 20 | 345 | 0.0 | 1.6 | 0.00 | 0.48 | 0.00 | 99 | 1013.1 |
| 20260901050004 | 20 | 6 | 0.0 | 1.6 | 0.00 | 0.48 | 0.00 | 99 | 1013.1 |
| 20260901045004 | 20 | 13 | 1.6 | 1.6 | 0.00 | 0.51 | 0.48 | 99 | 1012.9 |
| 20260901044004 | 20 | 343 | 0.0 | 1.6 | 0.00 | 0.51 | 0.48 | 99 | 1013.0 |
| 20260901041004 | 21 | 48 | 1.6 | 1.6 | 0.00 | 0.51 | 0.48 | 99 | 1012.9 |
| 20260901040004 | 21 | 341 | 0.0 | 1.6 | 0.00 | 0.51 | 0.48 | 99 | 1012.8 |
| 20260901034004 | 21 | 28 | 0.0 | 1.6 | 0.00 | 0.51 | 0.48 | 99 | 1012.7 |
| 20260901033004 | 21 | 1 | 0.0 | 1.6 | 0.00 | 0.51 | 0.48 | 99 | 1012.7 |
| 20260901030004 | 22 | 23 | 0.0 | 1.6 | 0.00 | 0.51 | 0.48 | 99 | 1013.0 |
| 20260901025004 | 22 | 25 | 0.0 | 1.6 | 0.00 | 0.51 | 0.48 | 99 | 1013.0 |
| 20260901023003 | 22 | 325 | 0.0 | 0.0 | 0.00 | 0.51 | 0.48 | 99 | 1013.1 |
| 20260901022004 | 22 | 50 | 0.0 | 1.6 | 0.00 | 0.51 | 0.48 | 99 | 1013.1 |
| 20260901021004 | 22 | 33 | 0.0 | 0.0 | 0.00 | 0.51 | 0.48 | 99 | 1013.0 |
| 20260901020003 | 22 | 309 | 0.0 | 0.0 | 0.00 | 0.51 | 0.48 | 99 | 1012.9 |
| 20260901015004 | 22 | 309 | 0.0 | 0.0 | 0.00 | 0.51 | 0.48 | 99 | 1013.0 |
| 20260901014003 | 22 | 309 | 0.0 | 0.0 | 0.00 | 0.51 | 0.48 | 99 | 1013.0 |
| 20260901013004 | 22 | 333 | 0.0 | 0.0 | 0.00 | 0.51 | 0.48 | 99 | 1012.8 |
| 20260901012004 | 22 | 333 | 0.0 | 0.0 | 0.00 | 0.51 | 0.48 | 99 | 1012.5 |
| 20260901011004 | 23 | 333 | 0.0 | 0.0 | 0.00 | 0.51 | 0.48 | 99 | 1012.3 |
| 20260901010004 | 23 | 322 | 0.0 | 0.0 | 0.00 | 0.51 | 0.48 | 99 | 1012.1 |
| 20260901005003 | 23 | 347 | 0.0 | 1.6 | 0.00 | 0.51 | 0.48 | 99 | 1011.9 |
| 20260901004004 | 23 | 17 | 0.0 | 1.6 | 0.00 | 0.51 | 0.48 | 99 | 1011.9 |
| 20260901002004 | 24 | 37 | 0.0 | 1.6 | 0.00 | 0.51 | 0.48 | 98 | 1011.7 |
| 20260901001004 | 25 | 25 | 0.0 | 0.0 | 0.00 | 0.51 | 0.48 | 96 | 1011.8 |
| 20260901000004 | 25 | 25 | 0.0 | 0.0 | 0.00 | 0.51 | 0.48 | 95 | 1011.8 |
| 20260831235004 | 26 | 333 | 0.0 | 0.0 | 0.00 | 0.51 | 0.48 | 93 | 1011.8 |
| 20260831234004 | 26 | 333 | 0.0 | 1.6 | 0.00 | 0.51 | 0.48 | 92 | 1011.7 |
| 20260831233004 | 27 | 289 | 0.0 | 3.2 | 0.00 | 0.51 | 0.48 | 88 | 1011.8 |
| 20260831232004 | 27 | 325 | 1.6 | 3.2 | 0.00 | 0.51 | 0.48 | 88 | 1011.6 |
| 20260831231004 | 27 | 8 | 1.6 | 3.2 | 0.00 | 0.51 | 0.48 | 89 | 1011.7 |
| 20260831230004 | 27 | 330 | 1.6 | 3.2 | 0.00 | 0.51 | 0.48 | 88 | 1011.5 |
| 20260831225004 | 27 | 0 | 1.6 | 3.2 | 0.00 | 0.51 | 0.48 | 86 | 1011.5 |
| 20260831224004 | 27 | 43 | 0.0 | 4.8 | 0.00 | 0.51 | 0.48 | 84 | 1011.4 |
| 20260831223004 | 28 | 345 | 1.6 | 4.8 | 0.00 | 0.51 | 0.48 | 84 | 1011.3 |
| 20260831221004 | 27 | 282 | 1.6 | 3.2 | 0.00 | 0.51 | 0.48 | 88 | 1011.3 |
| 20260831220004 | 26 | 327 | 3.2 | 4.8 | 0.00 | 0.51 | 0.48 | 89 | 1011.5 |
| 20260831215004 | 26 | 338 | 1.6 | 4.8 | 0.00 | 0.51 | 0.48 | 89 | 1011.5 |
| 20260831214004 | 26 | 280 | 3.2 | 4.8 | 0.00 | 0.51 | 0.48 | 88 | 1011.4 |
| 20260831213004 | 26 | 317 | 3.2 | 4.8 | 0.00 | 0.51 | 0.48 | 89 | 1011.1 |
| 20260831212004 | 26 | 0 | 1.6 | 4.8 | 0.00 | 0.51 | 0.48 | 89 | 1011.1 |
| 20260831211004 | 26 | 290 | 0.0 | 4.8 | 0.00 | 0.51 | 0.48 | 88 | 1011.1 |
| 20260831210004 | 27 | 0 | 3.2 | 4.8 | 0.00 | 0.51 | 0.48 | 87 | 1011.0 |
| 20260831205003 | 26 | 297 | 1.6 | 9.7 | 0.00 | 0.51 | 0.48 | 88 | 1011.0 |
| 20260831202003 | 26 | 315 | 3.2 | 8.0 | 0.00 | 0.51 | 0.48 | 87 | 1010.9 |
| 20260831201004 | 26 | 291 | 3.2 | 4.8 | 0.00 | 0.51 | 0.48 | 86 | 1011.0 |
| 20260831195003 | 26 | 283 | 3.2 | 8.0 | 0.00 | 0.51 | 0.48 | 86 | 1011.1 |
| 20260831194003 | 26 | 296 | 1.6 | 4.8 | 0.00 | 0.51 | 0.48 | 86 | 1011.2 |
| 20260831192003 | 26 | 318 | 3.2 | 8.0 | 0.00 | 0.51 | 0.48 | 86 | 1011.2 |
| 20260831191004 | 26 | 281 | 1.6 | 9.7 | 0.00 | 0.51 | 0.48 | 87 | 1011.3 |
| 20260831190004 | 26 | 292 | 3.2 | 9.7 | 0.00 | 0.51 | 0.48 | 86 | 1011.1 |
| 20260831185004 | 26 | 277 | 3.2 | 11.3 | 0.00 | 0.51 | 0.48 | 85 | 1011.4 |
| 20260831184004 | 27 | 296 | 1.6 | 9.7 | 0.00 | 0.51 | 0.48 | 84 | 1011.5 |
| 20260831183004 | 26 | 267 | 6.4 | 9.7 | 0.00 | 0.51 | 0.48 | 86 | 1011.8 |
| 20260831182004 | 26 | 301 | 3.2 | 12.9 | 0.00 | 0.51 | 0.48 | 86 | 1011.7 |
| 20260831181004 | 26 | 285 | 4.8 | 14.5 | 0.00 | 0.51 | 0.48 | 88 | 1011.8 |
| 20260831174004 | 26 | 326 | 3.2 | 9.7 | 0.00 | 0.51 | 0.48 | 87 | 1011.5 |
| 20260831173004 | 26 | 158 | 1.6 | 9.7 | 0.00 | 0.51 | 0.48 | 86 | 1011.7 |
| 20260831172004 | 26 | 356 | 1.6 | 9.7 | 0.00 | 0.51 | 0.48 | 87 | 1011.8 |
| 20260831171004 | 25 | 324 | 3.2 | 8.0 | 0.00 | 0.51 | 0.48 | 89 | 1011.9 |
| 20260831170004 | 24 | 319 | 4.8 | 8.0 | 0.00 | 0.51 | 0.48 | 91 | 1011.9 |
| 20260831165004 | 25 | 289 | 4.8 | 9.7 | 0.00 | 0.51 | 0.48 | 91 | 1011.8 |
| 20260831164003 | 24 | 301 | 3.2 | 4.8 | 0.00 | 0.51 | 0.48 | 91 | 1011.8 |
| 20260831163003 | 24 | 287 | 3.2 | 4.8 | 0.00 | 0.51 | 0.48 | 93 | 1011.9 |
| 20260831162004 | 23 | 46 | 1.6 | 3.2 | 0.00 | 0.51 | 0.48 | 94 | 1012.0 |
| 20260831161004 | 23 | 37 | 1.6 | 4.8 | 0.00 | 0.51 | 0.48 | 95 | 1011.8 |
| 20260831155003 | 22 | 354 | 1.6 | 4.8 | 0.00 | 0.51 | 0.48 | 98 | 1011.9 |
| 20260831153004 | 22 | 193 | 0.0 | 4.8 | 0.00 | 0.51 | 0.48 | 99 | 1011.9 |
| 20260831152003 | 21 | 306 | 1.6 | 4.8 | 0.00 | 0.51 | 0.48 | 99 | 1012.1 |
| 20260831151004 | 21 | 58 | 1.6 | 9.7 | 0.00 | 0.51 | 0.48 | 99 | 1012.1 |
| 20260831150004 | 21 | 354 | 1.6 | 8.0 | 0.00 | 0.51 | 0.48 | 99 | 1012.0 |
| 20260831145004 | 21 | 202 | 1.6 | 11.3 | 0.00 | 0.51 | 0.48 | 99 | 1012.2 |
| 20260831144004 | 21 | 313 | 1.6 | 8.0 | 0.00 | 0.51 | 0.48 | 99 | 1012.3 |
| 20260831143004 | 21 | 75 | 3.2 | 8.0 | 0.00 | 0.51 | 0.48 | 99 | 1012.3 |
| 20260831142004 | 20 | 60 | 3.2 | 4.8 | 0.00 | 0.51 | 0.48 | 99 | 1012.2 |
| 20260831141003 | 20 | 75 | 1.6 | 8.0 | 0.00 | 0.51 | 0.48 | 99 | 1012.4 |
| 20260831135004 | 20 | 15 | 1.6 | 4.8 | 0.00 | 0.51 | 0.48 | 99 | 1012.7 |
| 20260831134004 | 20 | 133 | 3.2 | 9.7 | 0.00 | 0.51 | 0.48 | 99 | 1012.8 |
| 20260831133004 | 20 | 321 | 1.6 | 8.0 | 0.00 | 0.51 | 0.48 | 99 | 1012.5 |
| 20260831132003 | 20 | 77 | 1.6 | 8.0 | 0.00 | 0.51 | 0.48 | 99 | 1012.5 |
| 20260831131004 | 20 | 36 | 3.2 | 11.3 | 0.00 | 0.51 | 0.48 | 99 | 1012.5 |
| 20260831130003 | 20 | 12 | 3.2 | 8.0 | 0.00 | 0.51 | 0.48 | 99 | 1012.7 |
| 20260831124004 | 20 | 2 | 3.2 | 4.8 | 0.00 | 0.51 | 0.48 | 99 | 1012.6 |
| 20260831123004 | 20 | 349 | 3.2 | 8.0 | 0.00 | 0.51 | 0.48 | 99 | 1012.5 |
| 20260831122003 | 20 | 76 | 3.2 | 9.7 | 0.00 | 0.51 | 0.48 | 99 | 1012.6 |
| 20260831121004 | 20 | 82 | 3.2 | 8.0 | 0.00 | 0.51 | 0.48 | 99 | 1012.6 |
| 20260831120004 | 20 | 39 | 3.2 | 8.0 | 0.00 | 0.51 | 0.48 | 99 | 1012.7 |
| 20260831115004 | 20 | 63 | 3.2 | 9.7 | 0.00 | 0.51 | 0.48 | 99 | 1012.6 |
| 20260831114004 | 20 | 356 | 3.2 | 8.0 | 0.00 | 0.51 | 0.48 | 99 | 1012.8 |
| 20260831113004 | 20 | 266 | 3.2 | 8.0 | 0.00 | 0.51 | 0.48 | 99 | 1012.5 |
| 20260831111004 | 19 | 17 | 3.2 | 4.8 | 0.00 | 0.51 | 0.48 | 99 | 1012.6 |
| 20260831110004 | 19 | 40 | 1.6 | 4.8 | 0.00 | 0.51 | 0.48 | 99 | 1012.4 |
| 20260831105004 | 19 | 54 | 1.6 | 8.0 | 0.00 | 0.51 | 0.48 | 99 | 1012.6 |
| 20260831104004 | 19 | 83 | 3.2 | 8.0 | 0.00 | 0.51 | 0.48 | 99 | 1012.7 |
| 20260831103005 | 19 | 98 | 3.2 | 4.8 | 0.15 | 0.51 | 0.48 | 99 | 1012.7 |
| 20260831101004 | 19 | 90 | 3.2 | 8.0 | 0.15 | 0.53 | 0.48 | 99 | 1013.0 |
| 20260831100004 | 19 | 357 | 1.6 | 4.8 | 0.15 | 0.53 | 0.48 | 99 | 1013.0 |
| 20260831095004 | 19 | 10 | 3.2 | 8.0 | 0.15 | 0.53 | 0.48 | 99 | 1013.0 |
| 20260831094004 | 19 | 11 | 3.2 | 3.2 | 0.25 | 0.51 | 0.48 | 99 | 1012.9 |
| 20260831093005 | 19 | 59 | 3.2 | 4.8 | 0.33 | 0.38 | 0.33 | 99 | 1013.1 |
| 20260831092004 | 19 | 91 | 1.6 | 4.8 | 0.33 | 0.38 | 0.33 | 99 | 1013.1 |
| 20260831091004 | 19 | 67 | 1.6 | 4.8 | 0.33 | 0.38 | 0.33 | 99 | 1013.2 |
| 20260831085004 | 19 | 22 | 3.2 | 4.8 | 0.33 | 0.38 | 0.33 | 99 | 1013.2 |
| 20260831084004 | 19 | 56 | 3.2 | 8.0 | 0.23 | 0.25 | 0.23 | 99 | 1013.4 |
| 20260831083004 | 19 | 4 | 1.6 | 3.2 | 0.00 | 0.05 | 0.00 | 99 | 1013.2 |
| 20260831082004 | 19 | 45 | 1.6 | 3.2 | 0.00 | 0.05 | 0.00 | 99 | 1013.5 |
| 20260831081004 | 19 | 30 | 1.6 | 4.8 | 0.00 | 0.05 | 0.00 | 99 | 1013.8 |
| 20260831075004 | 19 | 61 | 1.6 | 4.8 | 0.00 | 0.05 | 0.00 | 99 | 1014.1 |
| 20260831074004 | 19 | 0 | 1.6 | 3.2 | 0.00 | 0.05 | 0.00 | 99 | 1014.1 |
| 20260831073004 | 19 | 24 | 0.0 | 3.2 | 0.00 | 0.05 | 0.00 | 99 | 1014.2 |
| 20260831072004 | 20 | 357 | 0.0 | 1.6 | 0.00 | 0.05 | 0.00 | 99 | 1014.4 |
| 20260831071004 | 20 | 16 | 0.0 | 1.6 | 0.00 | 0.05 | 0.00 | 99 | 1014.4 |
| 20260831070004 | 20 | 356 | 1.6 | 1.6 | 0.00 | 0.05 | 0.00 | 99 | 1014.3 |
| 20260831065003 | 20 | 37 | 0.0 | 3.2 | 0.00 | 0.05 | 0.00 | 99 | 1014.4 |
| 20260831064005 | 20 | 338 | 1.6 | 3.2 | 0.00 | 0.05 | 0.00 | 99 | 1014.4 |